This demonstration page uses our WeatherBlox Daily Observations layout. Learn more.

Left ArrowRight Arrow

39.92423, -83.80882

Hourly Observations for September 24, 2022

Temp ( °F °C ) Dew Point ( °F °C ) Humidity (%) Winds ( mph kmh ) Pressure ( in mb ) Visibility ( mi km ) Precip ( " mm )
12:56 am 00:56 Cloudy 54 12.2 48 8.9 80 80 ESE 3 6 30.13 1020 10 16 0.01 0.13
1:56 am 01:56 Cloudy 54 12.2 49 9.4 83 83 SE 3 6 30.12 1020 10 16 0.00 0.00
2:56 am 02:56 Cloudy 54 12.2 52 11.1 93 93 ENE 7 11 30.12 1020 10 16 0.00 0.00
3:56 am 03:56 Cloudy 55 12.8 50 10 83 83 S 3 6 30.11 1020 10 16 0.00 0.00
4:56 am 04:56 Cloudy with Light Rain 54 12.2 54 12.2 100 100 Calm 30.13 1020 10 16 0.01 0.13
5:56 am 05:56 Cloudy 54 12.2 54 12.2 100 100 Calm 30.12 1020 10 16 0.01 0.13
6:56 am 06:56 Cloudy 53 11.7 N/A N/A SW 5 7 30.11 1020 10 16 0.01 0.13
7:56 am 07:56 Cloudy with Light Rain 53 11.7 N/A N/A Calm 30.11 1020 10 16 0.01 0.13
8:56 am 08:56 Cloudy 54 12.2 N/A N/A SSE 3 6 30.09 1019 10 16 0.01 0.13
9:56 am 09:56 Cloudy 58 14.4 51 10.6 78 78 VRB 5 7 30.08 1019 10 16 0.00 0.00
10:56 am 10:56 Partly Cloudy 64 17.8 48 8.9 56 56 S 12 19 30.05 1018 10 16 0.00 0.00
11:56 am 11:56 Cloudy 66 18.9 47 8.3 50 50 SSW 8 13 30.02 1017 10 16 0.00 0.00
12:56 pm 12:56 Cloudy 66 18.9 47 8.3 50 50 S 12 19 30.00 1016 10 16 0.00 0.00
1:56 pm 13:56 Cloudy 65 18.3 49 9.4 56 56 S 3 6 29.98 1015 10 16 0.00 0.00
2:56 pm 14:56 Cloudy 69 20.6 50 10 51 51 SSW 7 11 29.93 1014 10 16 0.00 0.00
3:56 pm 15:56 Cloudy 71 21.7 53 11.7 53 53 S 9 15 29.90 1013 10 16 0.00 0.00
4:56 pm 16:56 Cloudy 70 21.1 54 12.2 57 57 SSW 7 11 29.89 1012 10 16 0.00 0.00
5:56 pm 17:56 Mostly Sunny 71 21.7 56 13.3 59 59 SW 6 9 29.88 1012 10 16 0.00 0.00
6:56 pm 18:56 Sunny 68 20 57 13.9 68 68 SSW 3 6 29.87 1012 10 16 0.00 0.00
7:56 pm 19:56 Clear 62 16.7 58 14.4 86 86 SSW 5 7 29.86 1011 10 16 0.00 0.00
8:56 pm 20:56 Clear 60 15.6 60 15.6 100 100 SSW 3 6 29.88 1012 10 16 0.00 0.00
9:56 pm 21:56 Clear 61 16.1 61 16.1 100 100 SSW 3 6 29.86 1011 10 16 0.00 0.00
10:56 pm 22:56 Clear 62 16.7 62 16.7 100 100 VRB 5 7 29.85 1011 10 16 0.00 0.00
11:56 pm 23:56 Clear 61 16.1 N/A N/A SSW 6 9 29.83 1010 10 16 0.00 0.00

Powered by AerisWeather